This is the latest recevied weather packets stored in our database for station/object DO7ZT-13. If no packets are shown the sender has not sent any weather packets the latest 10 day(s).
| Time | Temp. | Humidity | Pressure | Rain* | Wind** | Luminosity | Snow |
|---|---|---|---|---|---|---|---|
| 1777725313 | 23.89° C | 25% | 1021.4 hPa | 0 mm | 0.45 m/s, 263° | - | - |
| 1777725039 | 22.78° C | 28% | 1021.7 hPa | 0 mm | 0.45 m/s, 283° | - | - |
| 1777724726 | 22.78° C | 28% | 1021.7 hPa | 0 mm | 1.79 m/s, 156° | - | - |
| 1777724413 | 22.78° C | 28% | 1021.7 hPa | 0 mm | 0.89 m/s, 167° | - | - |
| 1777724126 | 22.78° C | 26% | 1021.8 hPa | 0 mm | 0.45 m/s, 228° | - | - |
| 1777723813 | 22.78° C | 30% | 1021.8 hPa | 0 mm | 1.34 m/s, 174° | - | - |
| 1777723526 | 22.78° C | 28% | 1021.8 hPa | 0 mm | 0.89 m/s, 140° | - | - |
| 1777722926 | 22.78° C | 28% | 1022 hPa | 0 mm | 0.45 m/s, 257° | - | - |
| 1777722013 | 22.22° C | 31% | 1022.2 hPa | 0 mm | 0.45 m/s, 200° | - | - |
| 1777721726 | 22.22° C | 30% | 1022.2 hPa | 0 mm | 1.34 m/s, 168° | - | - |
| 1777721413 | 22.22° C | 29% | 1022.4 hPa | 0 mm | 0.45 m/s, 199° | - | - |
| 1777721126 | 22.22° C | 30% | 1022.4 hPa | 0 mm | 0.89 m/s, 84° | - | - |
| 1777720813 | 22.22° C | 30% | 1022.4 hPa | 0 mm | 0.89 m/s, 145° | - | - |
| 1777720526 | 22.22° C | 29% | 1022.6 hPa | 0 mm | 2.24 m/s, 174° | - | - |
| 1777720213 | 22.22° C | 30% | 1022.6 hPa | 0 mm | 2.24 m/s, 181° | - | - |
| 1777719925 | 22.22° C | 32% | 1022.6 hPa | 0 mm | 1.34 m/s, 114° | - | - |
| 1777719618 | 22.22° C | 27% | 1022.7 hPa | 0 mm | 0.89 m/s, 144° | - | - |
| 1777719325 | 22.22° C | 29% | 1022.7 hPa | 0 mm | 0.89 m/s, 141° | - | - |
| 1777719013 | 22.22° C | 26% | 1022.7 hPa | 0 mm | 1.34 m/s, 160° | - | - |
| 1777718726 | 22.22° C | 27% | 1023 hPa | 0 mm | 1.34 m/s, 169° | - | - |
| 1777718413 | 22.22° C | 25% | 1023 hPa | 0 mm | 1.79 m/s, 178° | - | - |
| 1777718126 | 22.22° C | 27% | 1023 hPa | 0 mm | 1.79 m/s, 175° | - | - |
| 1777717813 | 22.22° C | 25% | 1023.1 hPa | 0 mm | 0.89 m/s, 196° | - | - |
| 1777717538 | 22.22° C | 25% | 1023.1 hPa | 0 mm | 0.89 m/s, 261° | - | - |
| 1777717226 | 22.22° C | 25% | 1023.1 hPa | 0 mm | 0.89 m/s, 256° | - | - |
* Rain latest hour (hover to see other rain measurements)
** Current wind speed in m/s (hover to see current wind gust speed)